#timestamp,LO_Frequency,Hit,StdDev 
1557190815.3,286047000.1,N
1557190835.1,286046999.6,N
1557190855.9,286046998.7,N
1557190875.7,286046999.8,N
1557190895.5,286047002.8,N
1557190915.4,286047002.6,N
1557190935.2,286047002.1,N
1557190955.0,286046999.8,N
1557190955.9,286046999.8,N
1557190975.8,286047002.6,N
1557190995.6,286046999.9,N
1557191015.5,286047002.3,N
1557191035.3,286047002.4,N
1557191055.1,286047000.9,N
1557191075.9,286047000.8,N
1557191095.7,286046999.8,N
1557191115.6,286046998.6,N
1557191135.4,286046996.5,N
1557191155.2,286046998.8,N
1557191175.1,286046998.2,N
1557191176.0,286046998.2,N
1557191195.8,286047000.4,N
1557191215.6,286047002.4,N
1557191235.5,286047001.5,N
1557191255.3,286046999.7,N
1557191275.2,286047002.7,N
1557191295.9,286047000.5,N
1557191315.7,286047000.4,N
1557191335.6,286047002.8,N
1557191355.4,286047000.1,N
1557191375.2,286047002.3,N
1557191395.1,286047001.6,N
1557191396.0,286047001.6,N
1557191415.8,286047002.7,N
1557191435.7,286047002.4,N
1557191455.5,286047000.3,N
1557191475.4,286046999.8,N
1557191495.3,286047002.3,N
1557191515.1,286046999.8,N
1557191516.0,286046999.8,N
1557191535.8,286046999.8,N
1557191555.7,286047000.9,N
1557191575.5,286046998.4,N
1557191595.3,286046998.5,N
1557191615.2,286046999.2,N
1557191635.0,286046999.4,N
1557191635.9,286046999.4,N
1557191655.8,286046996.8,N
1557191675.6,286046997.6,N
1557191695.4,286046997.7,N
1557191715.3,286046997.6,N
1557191735.1,286046996.0,N
1557191755.8,286046993.6,Y
1557191775.7,286046991.8,P
1557191795.5,286046992.1,N
1557191815.4,286046993.3,N
1557191835.2,286046993.4,N
1557191855.0,286046997.3,N
1557191855.9,286046997.3,N
1557191875.8,286046996.3,N
1557191895.6,286046993.7,N
1557191915.5,286046993.5,N
1557191935.3,286046997.5,N
1557191955.1,286046995.2,N
1557191975.9,286046996.2,N
1557191995.7,286046995.8,N
1557192015.5,286046995.3,N
1557192035.4,286046995.5,N
1557192055.2,286046996.0,N
1557192075.1,286046996.2,N
1557192076.0,286046996.2,N
1557192095.1,286046996.4,N
1557192115.9,286046993.3,Y
1557192135.7,286047000.4,P
1557192155.6,286047001.0,N
1557192175.4,286047000.2,N
1557192195.2,286046999.5,N
1557192215.1,286046997.3,N
1557192216.0,286046997.3,N
1557192235.8,286046998.3,N
1557192255.7,286047000.8,N
1557192275.5,286047001.2,N
1557192295.5,286046998.2,N
1557192315.3,286047000.8,N
1557192335.1,286046998.6,N
1557192355.9,286046999.3,N
1557192375.7,286047000.9,N
1557192395.5,286047000.7,N
1557192415.4,286046998.6,N
1557192435.2,286046997.1,N
1557192455.1,286046999.6,N
1557192456.0,286046999.6,N
1557192475.8,286046997.1,N
1557192495.6,286046998.3,N
1557192515.5,286046998.4,N
1557192535.3,286047001.0,N
1557192555.1,286046998.8,N
1557192575.9,286046998.6,N
1557192595.7,286047000.7,N
1557192615.6,286047000.4,N
1557192635.4,286046999.9,N
1557192655.2,286047001.1,N
1557192675.1,286047001.2,N
1557192676.0,286047001.2,N
1557192695.8,286047001.2,N
1557192715.7,286047000.9,N
1557192735.5,286047002.1,N
1557192755.4,286047001.3,N
1557192775.2,286047004.0,N
1557192795.1,286047005.6,Y
1557192796.0,286047005.6,P
1557192815.8,286047006.0,N
1557192835.6,286047005.4,N
1557192855.5,286047003.5,N
1557192875.3,286047001.0,N
1557192895.1,286046999.5,N
1557192915.9,286046999.9,N
1557192935.7,286047002.5,N
1557192955.6,286047004.7,N
1557192975.4,286047004.4,N
1557192995.2,286047002.2,N
1557193015.1,286047002.3,N
1557193016.0,286047002.3,N
1557193035.8,286047000.3,N
1557193055.6,286047000.1,N
1557193075.5,286047000.0,N
1557193095.3,286047000.1,N
1557193115.2,286047002.5,N
1557193135.9,286047004.4,N
1557193155.7,286047000.0,N
1557193175.6,286046999.7,N
1557193195.4,286047003.0,N
1557193215.3,286047005.2,N
1557193235.1,286047004.5,N
1557193236.0,286047004.5,N
1557193255.8,286047005.2,N
1557193275.7,286047003.8,N
1557193295.5,286047001.6,N
1557193315.3,286047000.0,N
1557193335.2,286047000.7,N
1557193355.0,286047002.5,N
1557193355.9,286047002.5,N
1557193375.8,286047005.0,N
1557193395.6,286047003.5,N
1557193415.4,286047011.9,Y
1557193435.3,286047001.0,P
1557193455.1,286047003.9,P
1557193475.8,286047005.4,P
1557193495.7,286047005.6,Y
1557193515.5,286046999.4,P
1557193535.4,286046999.5,N
1557193555.2,286046999.4,N
1557193575.0,286046997.9,N
1557193575.9,286046997.9,N
1557193595.8,286046999.4,N
1557193615.6,286046998.2,N
1557193635.5,286047000.9,N
1557193655.3,286047001.0,N
1557193675.1,286046999.6,N
1557193695.9,286046996.8,N
1557193715.7,286046995.6,N
1557193735.6,286046997.3,N
1557193755.4,286046997.6,N
1557193775.2,286046997.8,N
1557193795.1,286046996.7,N
1557193796.0,286046996.7,N
1557193815.8,286046996.1,N
1557193835.6,286046995.3,N
1557193855.5,286046999.2,N
1557193875.3,286047000.9,N
1557193895.2,286047000.6,N
1557193915.9,286047000.1,N
1557193935.7,286047000.1,N
1557193955.6,286047003.9,N
1557193975.4,286047002.3,N
1557193995.2,286047000.3,N
1557194015.1,286046998.2,N
1557194016.0,286046998.2,N
1557194035.8,286047002.8,N
1557194055.7,286047000.9,N
1557194075.5,286047000.7,N
1557194095.6,286046998.8,N
1557194115.5,286046998.6,N
1557194135.3,286046997.0,N
1557194155.2,286046999.4,N
1557194175.0,286046999.3,N
1557194175.9,286046999.3,N
1557194195.7,286046995.5,N
1557194215.6,286046994.9,N
1557194235.4,286046996.7,N
1557194255.3,286046998.9,N
1557194275.1,286046999.1,N
1557194276.0,286046999.1,N
1557194295.8,286046996.7,N
1557194315.7,286046997.0,N
1557194335.5,286046998.6,N
1557194355.3,286046997.4,N
1557194375.2,286046997.3,N
1557194395.0,286046995.9,N
1557194395.9,286046995.9,N
